Regional Weather Roundup
Issued by NWS Newport/Morehead, NC

Current Version | Previous Version | Graphics & Text | Print | Product List | Glossary On
Versions: 1 2 3 4 5 6 7 8 9 10 11 12 13 14 15 16 17 18 19 20 21 22 23 24 25 26 27 28 29 30 31 32 33 34 35 36 37 38 39 40 41 42 43 44 45 46 47 48 49 50
000 ASUS42 KMHX 230222 RWRMHX WEATHER ROUNDUP FOR EASTERN NORTH CAROLINA NATIONAL WEATHER SERVICE NEWPORT/MOREHEAD CITY NC 1000 PM EDT MON SEP 22 2014 NOTE: "FAIR" INDICATES FEW OR NO CLOUDS BELOW 12,000 FEET WITH NO SIGNIFICANT WEATHER AND/OR OBSTRUCTIONS TO VISIBILITY NCZ015>017-031-032-045>047-102-103-230300- NORTH COAST CITY SKY/WX TMP DP RH WIND PRES REMARKS EDENTON MOCLDY 64 60 86 CALM 30.14R ELIZABETH CITY MOCLDY 68 59 73 N6 30.13R KITTY HAWK CLEAR 69 58 67 NE3 30.12R MANTEO CLEAR 68 58 70 NE7 30.13R $$ NCZ045>047-081-094-103-104-230300- CENTRAL COAST CITY SKY/WX TMP DP RH WIND PRES REMARKS FRISCO CLEAR 68 61 78 NE6 30.11R SWANQUARTER N/A 66 N/A N/A NE5 30.09S $$ NCZ095-097-098-100-101-230300- SOUTHERN COAST CITY SKY/WX TMP DP RH WIND PRES REMARKS BEAUFORT MOCLDY 70 65 84 NE5 30.11R CEDAR ISLAND N/A 73 N/A N/A NE14 30.15S JACKSONVILLE CLOUDY 72 62 71 CALM 30.10R NEWPORT NOT AVBL PINEY ISLAND PTCLDY 75 63 66 NE8 30.10R WILMINGTON LGT RAIN 69 66 90 CALM 30.10S $$ NCZ011>013-027>030-043-044-078>080-089-090>093-098-230300- COASTAL PLAIN CITY SKY/WX TMP DP RH WIND PRES REMARKS AHOSKIE MOCLDY 62 58 87 CALM 30.14R CLINTON CLOUDY 69 60 71 N3 30.13R ELIZABETHTOWN DRIZZLE 68 59 73 CALM 30.11S GOLDSBORO CLOUDY 69 62 76 CALM 30.11R GREENVILLE CLOUDY 64 59 82 CALM 30.14R HAVELOCK MOCLDY 68 64 87 SE3 30.12R KENANSVILLE CLOUDY 69 58 68 NW3 30.12S KINSTON CLOUDY 67 60 80 N3 30.13R NEW BERN MOCLDY 69 64 84 CALM 30.12R RICHLANDS CLOUDY 66 61 82 CALM 30.11S ROANOKE RAPIDS NOT AVBL ROCKY MOUNT CLOUDY 66 59 78 CALM 30.13R WASHINGTON MOCLDY 64 60 88 CALM 30.13R WHITEVILLE CLOUDY 67 63 86 CALM 30.10R $$ AMZ130-135-150-152-154-156-158-170-250-252-270-ANZ085-086-088-633-658-670-230300- MARINE OBSERVATIONS STATION/POSITION TIME TEMP WIND PRES WAVE SWELL AIR SEA DIR/SP/G HT/PER HT/PER (UTC) (F) (DEG/KT/KT) (MB) (FT/S) (FT/S) CHESAPEAKE LIGHT 0200 70 360/ 13/ 15 1021.1 BUOY 44014 0200 71 76 360/ 12/ 16 1019.2 3/ 8 2/ 8 DUCK 0200 71 75 30/ 10/ 12 1019.4 2E DUCK 0200 N/A 2/ 8 OREGON INLET 0200 71 76 40/ 8/ 11 1019.9 BUOY 44095 0200 74 N/A 4/ 8 20E OREGON INLET NOT AVBL HATTERAS CG NOT AVBL DIAMOND BUOY 0200 74 360/ 14/ 16 1018.9 4/ 8 2/ 8 CAPE LOOKOUT 0200 73 20/ 8/ 10 1018.9 BEAUFORT LAB 0200 71 76 30/ 3/ 4 1018.9 30 SE NEW RIVER 0200 77 82 10/ 10/ 14 1018.3 3/ 6 2/ 6 5 SE WRIGHTSVILL 0200 70 79 340/ 6/ 8 N/A BUOY 41002 0053 80 81 CALM / 2 1018.8 3/ 7 3/ 7 BUOY 41004 0200 77 82 20/ 16/ 17 1017.4 3/ 7 2/ 7 $$

USA.gov is the U.S. government's official web portal to all federal, state and local government web resources and services.